TimeMST,TemperatureF,Dew PointF,Humidity,Sea Level PressureIn,VisibilityMPH,Wind Direction,Wind SpeedMPH,Gust SpeedMPH,PrecipitationIn,Events,Conditions,WindDirDegrees,DateUTC
12:53 AM,44.1,41.0,89,29.63,10.0,SSE,4.6,-,N/A,,Clear,150,2013-11-16 07:53:00
1:53 AM,44.1,41.0,89,29.62,10.0,SE,5.8,-,N/A,,Clear,130,2013-11-16 08:53:00
2:53 AM,39.0,37.9,96,29.65,9.0,SSE,6.9,-,N/A,,Clear,160,2013-11-16 09:53:00
3:53 AM,43.0,41.0,93,29.65,9.0,SW,4.6,-,N/A,,Partly Cloudy,220,2013-11-16 10:53:00
4:53 AM,39.9,39.0,97,29.67,9.0,South,4.6,-,N/A,,Clear,170,2013-11-16 11:53:00
5:53 AM,39.9,37.9,93,29.68,9.0,South,3.5,-,N/A,,Clear,180,2013-11-16 12:53:00
6:53 AM,44.1,41.0,89,29.68,10.0,South,6.9,-,N/A,,Clear,170,2013-11-16 13:53:00
7:53 AM,45.0,39.0,80,29.71,9.0,Calm,Calm,-,N/A,,Partly Cloudy,0,2013-11-16 14:53:00
8:53 AM,48.9,41.0,74,29.74,10.0,South,6.9,-,N/A,,Scattered Clouds,180,2013-11-16 15:53:00
9:53 AM,50.0,37.9,63,29.74,10.0,South,12.7,-,N/A,,Scattered Clouds,190,2013-11-16 16:53:00
10:53 AM,52.0,37.9,59,29.75,10.0,SSW,16.1,24.2,N/A,,Scattered Clouds,210,2013-11-16 17:53:00
11:53 AM,53.1,37.0,55,29.74,10.0,South,19.6,27.6,N/A,,Scattered Clouds,180,2013-11-16 18:53:00
12:53 PM,53.1,37.0,55,29.70,10.0,South,19.6,28.8,N/A,,Mostly Cloudy,190,2013-11-16 19:53:00
1:53 PM,53.1,35.1,50,29.69,10.0,South,13.8,27.6,N/A,,Mostly Cloudy,190,2013-11-16 20:53:00
2:53 PM,53.1,36.0,52,29.70,10.0,South,23.0,31.1,N/A,,Mostly Cloudy,190,2013-11-16 21:53:00
3:53 PM,51.1,36.0,56,29.71,10.0,SSW,15.0,25.3,N/A,,Mostly Cloudy,200,2013-11-16 22:53:00
4:53 PM,50.0,37.0,61,29.75,10.0,SSW,6.9,-,N/A,,Mostly Cloudy,210,2013-11-16 23:53:00
5:53 PM,48.9,37.9,66,29.77,10.0,SSW,8.1,-,N/A,,Mostly Cloudy,210,2013-11-17 00:53:00
6:53 PM,46.0,37.0,71,29.79,10.0,South,4.6,-,N/A,,Scattered Clouds,180,2013-11-17 01:53:00
7:53 PM,45.0,37.9,76,29.81,10.0,South,4.6,-,N/A,,Scattered Clouds,170,2013-11-17 02:53:00
8:53 PM,45.0,37.0,74,29.82,10.0,South,4.6,-,N/A,,Clear,170,2013-11-17 03:53:00
9:53 PM,44.1,37.0,76,29.84,10.0,Calm,Calm,-,N/A,,Partly Cloudy,0,2013-11-17 04:53:00
10:53 PM,41.0,34.0,76,29.86,10.0,Calm,Calm,-,N/A,,Mostly Cloudy,0,2013-11-17 05:53:00
11:53 PM,39.0,34.0,82,29.87,10.0,Calm,Calm,-,N/A,,Clear,0,2013-11-17 06:53:00